Location: Vale
(35.4830°N, 81.3830°W)
Time: 23:30:12
(UTC-05:00)

Cosmos 2237 Rocket - Visible Passes

Search period start: 21 February 2017 00:00
Search period end: 03 March 2017 00:00
Orbit: 834 x 851 km, 71.0° (Epoch: 21 February)

Date Brightness Start Highest point End Pass type
(mag) Time Alt. Az. Time Alt. Az. Time Alt. Az.
21 Feb 4.6 20:37:44 10° N 20:37:59 11° N 20:37:59 11° N visible
22 Feb 4.3 20:22:58 10° N 20:23:52 13° NNE 20:23:52 13° NNE visible
23 Feb 4.1 20:08:14 10° N 20:09:51 16° NNE 20:09:51 16° NNE visible
23 Feb 4.9 21:51:16 10° NNW 21:51:42 12° NNW 21:51:42 12° NNW visible
24 Feb 3.9 19:53:29 10° N 19:55:53 17° NE 19:55:53 17° NE visible
24 Feb 4.5 21:36:24 10° NNW 21:37:45 17° NW 21:37:45 17° NW visible
25 Feb 3.7 19:38:45 10° NNE 19:42:00 18° NE 19:42:00 18° NE visible
25 Feb 4.1 21:21:33 10° NNW 21:23:53 25° NW 21:23:53 25° NW visible
26 Feb 3.6 19:24:01 10° NNE 19:27:49 18° NE 19:28:14 18° ENE visible
26 Feb 3.5 21:06:41 10° NNW 21:10:07 36° NW 21:10:07 36° NW visible
27 Feb 3.7 19:09:19 10° NNE 19:12:58 17° NE 19:14:36 15° ENE visible
27 Feb 2.8 20:51:50 10° NNW 20:56:29 54° WNW 20:56:29 54° WNW visible
28 Feb 3.7 18:54:36 10° NNE 18:58:05 16° NE 19:01:07 11° E visible
28 Feb 2.4 20:36:59 10° NNW 20:42:40 68° WSW 20:43:01 66° SW visible
01 Mar 3.8 18:39:55 10° NNE 18:43:13 15° NE 18:46:29 10° E visible
01 Mar 2.3 20:22:09 10° NNW 20:27:50 72° WSW 20:29:46 42° S visible
02 Mar 2.3 20:07:19 10° NNW 20:13:00 76° WSW 20:16:46 22° S visible
